Time,TemperatureF,DewpointF,PressureIn,WindDirection,WindDirectionDegrees,WindSpeedMPH,WindSpeedGustMPH,Humidity,HourlyPrecipIn,Conditions,Clouds,dailyrainin,SolarRadiationWatts/m^2,SoftwareType,DateUTC
2013-04-26 00:01:00,59.0,6.0,-100.00,West,272,10.0,20.0,12,0.00,,,0.00,0.000000,,2013-04-26 06:01:00,
2013-04-26 00:22:00,59.0,6.0,-100.00,West,272,10.0,20.0,12,0.00,,,0.00,0.000000,,2013-04-26 06:22:00,
2013-04-26 00:32:00,59.0,6.0,-100.00,West,272,10.0,20.0,12,0.00,,,0.00,0.000000,,2013-04-26 06:32:00,
2013-04-26 00:42:00,59.0,6.0,-100.00,West,272,10.0,20.0,12,0.00,,,0.00,0.000000,,2013-04-26 06:42:00,
2013-04-26 00:52:00,59.0,6.0,-100.00,West,272,10.0,20.0,12,0.00,,,0.00,0.000000,,2013-04-26 06:52:00,
2013-04-26 01:01:00,58.0,12.0,-100.00,West,275,12.0,24.0,16,0.00,,,0.00,0.000000,,2013-04-26 07:01:00,
2013-04-26 01:32:00,58.0,12.0,-100.00,West,275,12.0,24.0,16,0.00,,,0.00,0.000000,,2013-04-26 07:32:00,
2013-04-26 01:42:00,58.0,12.0,-100.00,West,275,12.0,24.0,16,0.00,,,0.00,0.000000,,2013-04-26 07:42:00,
2013-04-26 01:52:00,58.0,12.0,-100.00,West,275,12.0,24.0,16,0.00,,,0.00,0.000000,,2013-04-26 07:52:00,
2013-04-26 02:01:00,56.0,13.0,-100.00,WNW,291,8.0,24.0,18,0.00,,,0.00,0.000000,,2013-04-26 08:01:00,
2013-04-26 02:32:00,56.0,13.0,-100.00,WNW,291,8.0,24.0,18,0.00,,,0.00,0.000000,,2013-04-26 08:32:00,
2013-04-26 02:42:00,56.0,13.0,-100.00,WNW,291,8.0,24.0,18,0.00,,,0.00,0.000000,,2013-04-26 08:42:00,
2013-04-26 02:52:00,56.0,13.0,-100.00,WNW,291,8.0,24.0,18,0.00,,,0.00,0.000000,,2013-04-26 08:52:00,
2013-04-26 03:01:00,52.0,14.0,-100.00,NW,320,4.0,15.0,22,0.00,,,0.00,0.000000,,2013-04-26 09:01:00,
2013-04-26 03:22:00,52.0,14.0,-100.00,NW,320,4.0,15.0,22,0.00,,,0.00,0.000000,,2013-04-26 09:22:00,
2013-04-26 03:33:00,52.0,14.0,-100.00,NW,320,4.0,15.0,22,0.00,,,0.00,0.000000,,2013-04-26 09:33:00,
2013-04-26 03:43:00,52.0,14.0,-100.00,NW,320,4.0,15.0,22,0.00,,,0.00,0.000000,,2013-04-26 09:43:00,
2013-04-26 03:53:00,52.0,14.0,-100.00,NW,320,4.0,15.0,22,0.00,,,0.00,0.000000,,2013-04-26 09:53:00,
2013-04-26 04:01:00,50.0,16.0,-100.00,NNW,331,4.0,6.0,25,0.00,,,0.00,0.000000,,2013-04-26 10:01:00,
2013-04-26 04:33:00,50.0,16.0,-100.00,NNW,331,4.0,6.0,25,0.00,,,0.00,0.000000,,2013-04-26 10:33:00,
2013-04-26 04:42:00,50.0,16.0,-100.00,NNW,331,4.0,6.0,25,0.00,,,0.00,0.000000,,2013-04-26 10:42:00,
2013-04-26 04:52:00,50.0,16.0,-100.00,NNW,331,4.0,6.0,25,0.00,,,0.00,0.000000,,2013-04-26 10:52:00,
2013-04-26 05:01:00,52.0,16.0,-100.00,WNW,300,5.0,14.0,24,0.00,,,0.00,0.000000,,2013-04-26 11:01:00,
2013-04-26 05:22:00,52.0,16.0,-100.00,WNW,300,5.0,14.0,24,0.00,,,0.00,0.000000,,2013-04-26 11:22:00,
2013-04-26 05:32:00,52.0,16.0,-100.00,WNW,300,5.0,14.0,24,0.00,,,0.00,0.000000,,2013-04-26 11:32:00,
2013-04-26 05:42:00,52.0,16.0,-100.00,WNW,300,5.0,14.0,24,0.00,,,0.00,0.000000,,2013-04-26 11:42:00,
2013-04-26 05:52:00,52.0,16.0,-100.00,WNW,300,5.0,14.0,24,0.00,,,0.00,0.000000,,2013-04-26 11:52:00,
2013-04-26 06:01:00,46.0,13.0,-100.00,North,353,4.0,9.0,26,0.00,,,0.00,0.000000,,2013-04-26 12:01:00,
2013-04-26 06:32:00,46.0,13.0,-100.00,North,353,4.0,9.0,26,0.00,,,0.00,0.000000,,2013-04-26 12:32:00,
2013-04-26 06:42:00,46.0,13.0,-100.00,North,353,4.0,9.0,26,0.00,,,0.00,0.000000,,2013-04-26 12:42:00,
2013-04-26 06:52:00,46.0,13.0,-100.00,North,353,4.0,9.0,26,0.00,,,0.00,0.000000,,2013-04-26 12:52:00,
2013-04-26 07:01:00,46.0,14.0,-100.00,North,1,4.0,6.0,27,0.00,,,0.00,8.000000,,2013-04-26 13:01:00,
2013-04-26 07:32:00,46.0,14.0,-100.00,North,1,4.0,6.0,27,0.00,,,0.00,8.000000,,2013-04-26 13:32:00,
2013-04-26 07:42:00,46.0,14.0,-100.00,North,1,4.0,6.0,27,0.00,,,0.00,8.000000,,2013-04-26 13:42:00,
2013-04-26 07:52:00,46.0,14.0,-100.00,North,1,4.0,6.0,27,0.00,,,0.00,8.000000,,2013-04-26 13:52:00,
2013-04-26 08:01:00,56.0,17.0,-100.00,NW,326,6.0,10.0,21,0.00,,,0.00,171.000000,,2013-04-26 14:01:00,
2013-04-26 08:32:00,56.0,17.0,-100.00,NW,326,6.0,10.0,21,0.00,,,0.00,171.000000,,2013-04-26 14:32:00,
2013-04-26 08:42:00,56.0,17.0,-100.00,NW,326,6.0,10.0,21,0.00,,,0.00,171.000000,,2013-04-26 14:42:00,
2013-04-26 08:52:00,56.0,17.0,-100.00,NW,326,6.0,10.0,21,0.00,,,0.00,171.000000,,2013-04-26 14:52:00,
2013-04-26 09:01:00,60.0,11.0,-100.00,NW,311,8.0,12.0,14,0.00,,,0.00,443.000000,,2013-04-26 15:01:00,
2013-04-26 09:33:00,60.0,11.0,-100.00,NW,311,8.0,12.0,14,0.00,,,0.00,443.000000,,2013-04-26 15:33:00,
2013-04-26 09:43:00,60.0,11.0,-100.00,NW,311,8.0,12.0,14,0.00,,,0.00,443.000000,,2013-04-26 15:43:00,
2013-04-26 09:53:00,60.0,11.0,-100.00,NW,311,8.0,12.0,14,0.00,,,0.00,443.000000,,2013-04-26 15:53:00,
2013-04-26 10:01:00,63.0,13.0,-100.00,West,272,7.0,13.0,14,0.00,,,0.00,666.000000,,2013-04-26 16:01:00,
2013-04-26 10:33:00,63.0,13.0,-100.00,West,272,7.0,13.0,14,0.00,,,0.00,666.000000,,2013-04-26 16:33:00,
2013-04-26 10:42:00,63.0,13.0,-100.00,West,272,7.0,13.0,14,0.00,,,0.00,666.000000,,2013-04-26 16:42:00,
2013-04-26 10:53:00,63.0,13.0,-100.00,West,272,7.0,13.0,14,0.00,,,0.00,666.000000,,2013-04-26 16:53:00,
2013-04-26 11:01:00,66.0,15.0,-100.00,WSW,251,8.0,14.0,14,0.00,,,0.00,853.000000,,2013-04-26 17:01:00,
2013-04-26 11:32:00,66.0,15.0,-100.00,WSW,251,8.0,14.0,14,0.00,,,0.00,853.000000,,2013-04-26 17:32:00,
2013-04-26 11:42:00,66.0,15.0,-100.00,WSW,251,8.0,14.0,14,0.00,,,0.00,853.000000,,2013-04-26 17:42:00,
2013-04-26 11:52:00,66.0,15.0,-100.00,WSW,251,8.0,14.0,14,0.00,,,0.00,853.000000,,2013-04-26 17:52:00,
2013-04-26 12:01:00,67.0,15.0,-100.00,SW,234,7.0,17.0,13,0.00,,,0.00,984.000000,,2013-04-26 18:01:00,
2013-04-26 12:22:00,67.0,15.0,-100.00,SW,234,7.0,17.0,13,0.00,,,0.00,984.000000,,2013-04-26 18:22:00,
2013-04-26 12:33:00,67.0,15.0,-100.00,SW,234,7.0,17.0,13,0.00,,,0.00,984.000000,,2013-04-26 18:33:00,
2013-04-26 12:42:00,67.0,15.0,-100.00,SW,234,7.0,17.0,13,0.00,,,0.00,984.000000,,2013-04-26 18:42:00,
2013-04-26 12:52:00,67.0,15.0,-100.00,SW,234,7.0,17.0,13,0.00,,,0.00,984.000000,,2013-04-26 18:52:00,
2013-04-26 13:01:00,71.0,16.0,-100.00,WSW,253,8.0,18.0,12,0.00,,,0.00,1048.000000,,2013-04-26 19:01:00,
2013-04-26 13:22:00,71.0,16.0,-100.00,WSW,253,8.0,18.0,12,0.00,,,0.00,1048.000000,,2013-04-26 19:22:00,
2013-04-26 13:32:00,71.0,16.0,-100.00,WSW,253,8.0,18.0,12,0.00,,,0.00,1048.000000,,2013-04-26 19:32:00,
2013-04-26 13:42:00,71.0,16.0,-100.00,WSW,253,8.0,18.0,12,0.00,,,0.00,1048.000000,,2013-04-26 19:42:00,
2013-04-26 13:52:00,71.0,16.0,-100.00,WSW,253,8.0,18.0,12,0.00,,,0.00,1048.000000,,2013-04-26 19:52:00,
2013-04-26 14:01:00,72.0,15.0,-100.00,West,279,9.0,17.0,11,0.00,,,0.00,1043.000000,,2013-04-26 20:01:00,
2013-04-26 14:32:00,72.0,15.0,-100.00,West,279,9.0,17.0,11,0.00,,,0.00,1043.000000,,2013-04-26 20:32:00,
2013-04-26 14:42:00,72.0,15.0,-100.00,West,279,9.0,17.0,11,0.00,,,0.00,1043.000000,,2013-04-26 20:42:00,
2013-04-26 14:52:00,72.0,15.0,-100.00,West,279,9.0,17.0,11,0.00,,,0.00,1043.000000,,2013-04-26 20:52:00,
2013-04-26 15:01:00,72.0,12.0,-100.00,West,267,9.0,23.0,10,0.00,,,0.00,978.000000,,2013-04-26 21:01:00,
2013-04-26 15:22:00,72.0,12.0,-100.00,West,267,9.0,23.0,10,0.00,,,0.00,978.000000,,2013-04-26 21:22:00,
2013-04-26 15:33:00,72.0,12.0,-100.00,West,267,9.0,23.0,10,0.00,,,0.00,978.000000,,2013-04-26 21:33:00,
2013-04-26 15:42:00,72.0,12.0,-100.00,West,267,9.0,23.0,10,0.00,,,0.00,978.000000,,2013-04-26 21:42:00,
2013-04-26 15:53:00,72.0,12.0,-100.00,West,267,9.0,23.0,10,0.00,,,0.00,978.000000,,2013-04-26 21:53:00,
2013-04-26 16:01:00,73.0,13.0,-100.00,West,272,9.0,19.0,10,0.00,,,0.00,846.000000,,2013-04-26 22:01:00,
2013-04-26 16:23:00,73.0,13.0,-100.00,West,272,9.0,19.0,10,0.00,,,0.00,846.000000,,2013-04-26 22:23:00,
2013-04-26 16:33:00,73.0,13.0,-100.00,West,272,9.0,19.0,10,0.00,,,0.00,846.000000,,2013-04-26 22:33:00,
2013-04-26 16:42:00,73.0,13.0,-100.00,West,272,9.0,19.0,10,0.00,,,0.00,846.000000,,2013-04-26 22:42:00,
2013-04-26 16:52:00,73.0,13.0,-100.00,West,272,9.0,19.0,10,0.00,,,0.00,846.000000,,2013-04-26 22:52:00,
2013-04-26 17:01:00,73.0,13.0,-100.00,West,275,6.0,19.0,10,0.00,,,0.00,661.000000,,2013-04-26 23:01:00,
2013-04-26 17:22:00,73.0,13.0,-100.00,West,275,6.0,19.0,10,0.00,,,0.00,661.000000,,2013-04-26 23:22:00,
2013-04-26 17:32:00,73.0,13.0,-100.00,West,275,6.0,19.0,10,0.00,,,0.00,661.000000,,2013-04-26 23:32:00,
2013-04-26 17:42:00,73.0,13.0,-100.00,West,275,6.0,19.0,10,0.00,,,0.00,661.000000,,2013-04-26 23:42:00,
2013-04-26 17:52:00,73.0,13.0,-100.00,West,275,6.0,19.0,10,0.00,,,0.00,661.000000,,2013-04-26 23:52:00,
2013-04-26 18:01:00,72.0,10.0,-100.00,West,267,11.0,17.0,9,0.00,,,0.00,444.000000,,2013-04-27 00:01:00,
2013-04-26 18:32:00,72.0,10.0,-100.00,West,267,11.0,17.0,9,0.00,,,0.00,444.000000,,2013-04-27 00:32:00,
2013-04-26 18:42:00,72.0,10.0,-100.00,West,267,11.0,17.0,9,0.00,,,0.00,444.000000,,2013-04-27 00:42:00,
2013-04-26 18:52:00,72.0,10.0,-100.00,West,267,11.0,17.0,9,0.00,,,0.00,444.000000,,2013-04-27 00:52:00,
2013-04-26 19:01:00,69.0,8.0,-100.00,SW,236,6.0,15.0,9,0.00,,,0.00,210.000000,,2013-04-27 01:01:00,
2013-04-26 19:21:00,69.0,8.0,-100.00,SW,236,6.0,15.0,9,0.00,,,0.00,210.000000,,2013-04-27 01:21:00,
2013-04-26 19:32:00,69.0,8.0,-100.00,SW,236,6.0,15.0,9,0.00,,,0.00,210.000000,,2013-04-27 01:32:00,
2013-04-26 19:42:00,69.0,8.0,-100.00,SW,236,6.0,15.0,9,0.00,,,0.00,210.000000,,2013-04-27 01:42:00,
2013-04-26 19:52:00,69.0,8.0,-100.00,SW,236,6.0,15.0,9,0.00,,,0.00,210.000000,,2013-04-27 01:52:00,
2013-04-26 20:01:00,65.0,7.0,-100.00,South,189,5.0,14.0,10,0.00,,,0.00,14.000000,,2013-04-27 02:01:00,
2013-04-26 20:32:00,65.0,7.0,-100.00,South,189,5.0,14.0,10,0.00,,,0.00,14.000000,,2013-04-27 02:32:00,
2013-04-26 20:42:00,65.0,7.0,-100.00,South,189,5.0,14.0,10,0.00,,,0.00,14.000000,,2013-04-27 02:42:00,
2013-04-26 20:52:00,65.0,7.0,-100.00,South,189,5.0,14.0,10,0.00,,,0.00,14.000000,,2013-04-27 02:52:00,
2013-04-26 21:01:00,59.0,5.0,-100.00,NE,54,1.0,7.0,11,0.00,,,0.00,0.000000,,2013-04-27 03:01:00,
2013-04-26 21:33:00,59.0,5.0,-100.00,NE,54,1.0,7.0,11,0.00,,,0.00,0.000000,,2013-04-27 03:33:00,
2013-04-26 21:43:00,59.0,5.0,-100.00,NE,54,1.0,7.0,11,0.00,,,0.00,0.000000,,2013-04-27 03:43:00,
2013-04-26 21:53:00,59.0,5.0,-100.00,NE,54,1.0,7.0,11,0.00,,,0.00,0.000000,,2013-04-27 03:53:00,
2013-04-26 22:01:00,58.0,4.0,-100.00,SSE,167,3.0,5.0,11,0.00,,,0.00,0.000000,,2013-04-27 04:01:00,
2013-04-26 22:23:00,58.0,4.0,-100.00,SSE,167,3.0,5.0,11,0.00,,,0.00,0.000000,,2013-04-27 04:23:00,
2013-04-26 22:33:00,58.0,4.0,-100.00,SSE,167,3.0,5.0,11,0.00,,,0.00,0.000000,,2013-04-27 04:33:00,
2013-04-26 22:43:00,58.0,4.0,-100.00,SSE,167,3.0,5.0,11,0.00,,,0.00,0.000000,,2013-04-27 04:43:00,
2013-04-26 22:53:00,58.0,4.0,-100.00,SSE,167,3.0,5.0,11,0.00,,,0.00,0.000000,,2013-04-27 04:53:00,
2013-04-26 23:01:00,57.0,3.0,-100.00,North,359,1.0,6.0,11,0.00,,,0.00,0.000000,,2013-04-27 05:01:00,
2013-04-26 23:22:00,57.0,3.0,-100.00,North,359,1.0,6.0,11,0.00,,,0.00,0.000000,,2013-04-27 05:22:00,
2013-04-26 23:32:00,57.0,3.0,-100.00,North,359,1.0,6.0,11,0.00,,,0.00,0.000000,,2013-04-27 05:32:00,
2013-04-26 23:42:00,57.0,3.0,-100.00,North,359,1.0,6.0,11,0.00,,,0.00,0.000000,,2013-04-27 05:42:00,
2013-04-26 23:52:00,57.0,3.0,-100.00,North,359,1.0,6.0,11,0.00,,,0.00,0.000000,,2013-04-27 05:52:00,